TimeMST,TemperatureF,Dew PointF,Humidity,Sea Level PressureIn,VisibilityMPH,Wind Direction,Wind SpeedMPH,Gust SpeedMPH,PrecipitationIn,Events,Conditions,WindDirDegrees,DateUTC
12:53 AM,37.9,15.1,39,30.11,10.0,West,10.4,-,N/A,,Clear,260,2012-12-05 07:53:00
1:53 AM,36.0,15.1,43,30.13,10.0,West,9.2,-,N/A,,Clear,260,2012-12-05 08:53:00
2:53 AM,39.0,15.1,38,30.09,10.0,SW,9.2,-,N/A,,Clear,230,2012-12-05 09:53:00
3:53 AM,39.9,15.1,36,30.07,10.0,SW,6.9,-,N/A,,Clear,230,2012-12-05 10:53:00
4:53 AM,43.0,16.0,34,30.08,10.0,West,8.1,-,N/A,,Clear,270,2012-12-05 11:53:00
5:53 AM,41.0,17.1,38,30.09,10.0,SW,5.8,-,N/A,,Clear,230,2012-12-05 12:53:00
7:53 AM,48.0,16.0,28,30.03,10.0,SSW,9.2,-,N/A,,Clear,200,2012-12-05 14:53:00
8:53 AM,54.0,19.9,26,30.00,10.0,SSW,8.1,-,N/A,,Clear,210,2012-12-05 15:53:00
9:53 AM,57.0,19.9,24,29.98,10.0,SSW,13.8,-,N/A,,Clear,210,2012-12-05 16:53:00
10:53 AM,61.0,21.9,22,29.90,10.0,South,13.8,-,N/A,,Clear,190,2012-12-05 17:53:00
12:53 PM,64.0,24.1,22,29.83,10.0,SW,17.3,21.9,N/A,,Clear,220,2012-12-05 19:53:00
1:53 PM,64.0,25.0,23,29.81,10.0,SW,10.4,-,N/A,,Clear,230,2012-12-05 20:53:00
2:53 PM,63.0,24.1,23,29.79,10.0,SSW,5.8,-,N/A,,Clear,200,2012-12-05 21:53:00
3:53 PM,60.1,25.0,26,29.78,10.0,South,4.6,-,N/A,,Clear,180,2012-12-05 22:53:00
4:53 PM,57.9,24.1,27,29.76,10.0,South,5.8,-,N/A,,Clear,180,2012-12-05 23:53:00
5:53 PM,54.0,24.1,31,29.78,10.0,SSW,10.4,-,N/A,,Clear,210,2012-12-06 00:53:00
6:53 PM,55.9,23.0,28,29.78,10.0,NNW,9.2,-,N/A,,Clear,330,2012-12-06 01:53:00
7:53 PM,51.1,26.1,38,29.77,10.0,North,4.6,-,N/A,,Scattered Clouds,350,2012-12-06 02:53:00
8:53 PM,48.0,27.0,44,29.79,10.0,NNW,15.0,-,N/A,,Clear,340,2012-12-06 03:53:00
9:53 PM,46.0,26.1,46,29.79,10.0,NNW,16.1,-,N/A,,Clear,330,2012-12-06 04:53:00
10:53 PM,46.9,25.0,42,29.78,10.0,North,13.8,-,N/A,,Partly Cloudy,350,2012-12-06 05:53:00
11:53 PM,46.9,25.0,42,29.78,10.0,NNW,11.5,-,N/A,,Scattered Clouds,340,2012-12-06 06:53:00